Location: Brienzwiler
(46.7508°N, 8.1014°E)
Time: 17:04:03
(UTC+00:00)

SPOT 3 Rocket - Pass Details

Date: 05 July 2020
Orbit: 778 x 795 km, 98.8° (Epoch: 11 August)

Event Time Altitude Azimuth Distance (km) Brightness Sun altitude
Rises 19:55:30 0° 174° (S) 3,274 6.3 -5.1°
Reaches altitude 10° 19:57:50 10° 178° (S) 2,351 5.6 -5.4°
Maximum altitude 20:02:58 60° 258° (WSW) 904 4.1 -6.0°
Drops below altitude 10° 20:08:10 10° 339° (NNW) 2,375 7.3 -6.7°
Sets 20:10:33 0° 343° (NNW) 3,310 8.0 -7.0°
